Regional Weather Roundup
Issued by NWS Upton, NY

Current Version | Previous Version | Text Only | Print | Product List | Glossary On
Versions: 1 2 3 4 5 6 7 8 9 10 11 12 13 14 15 16 17 18 19 20 21 22 23 24 25 26 27 28 29 30 31 32 33 34 35 36 37 38 39 40 41 42 43 44 45 46 47 48 49 50
000 ASUS41 KOKX 252008 RWROKX REGIONAL WEATHER ROUNDUP NATIONAL WEATHER SERVICE NEW YORK NY 400 PM EDT MON MAY 25 2015 NOTE: "FAIR" INDICATES FEW OR NO CLOUDS BELOW 12,000 FEET WITH NO SIGNIFICANT WEATHER AND/OR OBSTRUCTIONS TO VISIBILITY. NYZ071-072-176-178-NJZ106-104-252100- NEW YORK CITY METRO AREA CITY SKY/WX TMP DP RH WIND PRES REMARKS CENTRAL PARK SUNNY 84 56 38 S10G18 30.19F LAGUARDIA APRT MOSUNNY 83 56 39 S17 30.16F KENNEDY INTL PTSUNNY 75 57 53 S22G30 30.19F NEWARK/LIBERTY PTSUNNY 88 52 29 SW17G31 30.15F BRNX BOT. GARD N/A 81 57 44 E7 30.19S TETERBORO SUNNY 87 55 33 S13G20 30.14F $$ NYZ177-179-078>081-252100- LONG ISLAND NEW YORK CITY SKY/WX TMP DP RH WIND PRES REMARKS FARMINGDALE SUNNY 76 59 55 S18G26 30.21F ISLIP PTSUNNY 73 58 59 S12 30.20F SHIRLEY SUNNY 70 58 65 S10 30.24S WESTHAMPTON MOSUNNY 69 57 65 S12 30.25S MONTAUK POINT N/A 64 56 75 S7 30.25S $$ NYZ052-065-067-252100- HUDSON VALLEY CITY SKY/WX TMP DP RH WIND PRES REMARKS WHITE PLAINS SUNNY 80 58 46 S10G21 30.18F NEWBURGH MOSUNNY 86 57 37 SW12G29 30.14F MONTGOMERY NOT AVBL POUGHKEEPSIE MOSUNNY 87 55 33 S8G22 30.11F ALBANY MOSUNNY 87 57 35 S16G24 30.07F $$ NJZ001-105-106-008-010-013-015-019>022-104-252100- NEW JERSEY CITY SKY/WX TMP DP RH WIND PRES REMARKS NEWARK/LIBERTY PTSUNNY 88 52 29 SW17G31 30.15F TETERBORO SUNNY 87 55 33 S13G20 30.14F CALDWELL SUNNY 86 53 32 W9G18 30.15F MORRISTOWN PTSUNNY 88 54 31 SW13G23 30.16F SOMERVILLE MOSUNNY 86 55 34 S12G21 30.14F SUSSEX MOSUNNY 86 55 34 SW12G24 30.15F ANDOVER N/A 84 54 35 SW9G23 30.15F TRENTON SUNNY 86 54 33 SW18G26 30.17F MILLVILLE SUNNY 81 57 43 S12G22 30.23F ATLANTIC CITY SUNNY 80 59 48 S13G25 30.23F WRIGHTSTOWN SUNNY 86 56 36 SW20G25 30.16F TOMS RIVER SUNNY N/A N/A N/A S18G24 30.20S BELMAR MOSUNNY 86 55 35 SW15G24 30.19S $$ PAZ047>061-062-071-252100- EASTERN PENNSYLVANIA CITY SKY/WX TMP DP RH WIND PRES REMARKS PHILADELPHIA PTSUNNY 86 55 34 SW22G30 30.20F ALLENTOWN SUNNY 87 52 29 S17G25 30.16S SCRANTON MOSUNNY 87 50 27 S13G25 30.13S $$ CTZ002-004>006-009-010-012-RIZ004-006-007-MAZ004-011-015-252100- SOUTHERN NEW ENGLAND IN CT CITY SKY/WX TMP DP RH WIND PRES REMARKS BRADLEY INTL PTSUNNY 84 56 38 S20G26 30.13F HARTFORD MOSUNNY 83 55 38 S20G28 30.15F DANBURY SUNNY 80 56 43 S14G25 30.18F WTRBRY/OXFORD MOSUNNY 79 59 50 S12G21 30.20F BRIDGEPORT SUNNY 77 59 53 S16 30.19F MERIDEN MOSUNNY 82 55 39 S20G26 30.18S NEW HAVEN SUNNY 75 58 55 S13 30.20S CHESTER LGT RAIN 77 59 53 S12 30.22S GROTON PTSUNNY 61 54 77 S7 30.22F WILLIMANTIC CLOUDY 80 56 43 S17G24 30.19F IN RI CITY SKY/WX TMP DP RH WIND PRES REMARKS PROVIDENCE PTSUNNY 71 56 58 S10 30.21F BLOCK ISLAND MOSUNNY 63 54 72 SW17 30.26S WESTERLY PTSUNNY 66 56 70 S9 30.25R IN MA CITY SKY/WX TMP DP RH WIND PRES REMARKS BOSTON CLOUDY 77 57 50 S10 30.17F WORCESTER CLOUDY 79 51 37 SW15G23 30.19F WESTFIELD PTSUNNY 86 55 34 S20G28 30.12F PROVINCETOWN CLOUDY 66 55 68 SW13G18 30.22F NANTUCKET MOSUNNY 63 56 78 S13 30.28F $$ ANZ330-335-338-340-345-350-353-355-252100- COASTAL MARINE OBSERVATIONS STATION/POSITION TIME SKY/WX TEMP WIND PRES VSBY WAVE AIR SEA DIR/SP/G HT/PER (UTC) (F) (DEG/KT/KT) (MB) (MI) (FT/S) NY HARB ENTRANCE 1950 63 57 190/ 17/ 21 1021.9 3/ 4 4S FIRE IS 1903 55 N/A 2/ 5 20S FIRE ISLAND 1950 60 56 190/ 16/ 17 1023.3 2/ 5 GREAT SOUTH BAY NOT AVBL 23SW MTP 1950 57 54 210/ 12/ 14 1024.0 2/ 5 HUDSON CANYON NOT AVBL KINGS POINT 1900 72 58 200/ 13/ 15 1021.8 CENTRAL LI SOUND 1900 64 55 180/ 8/ 10 N/A EASTERN LI SOUND 1900 58 160/ 10/ 12 N/A ROBBINS REEF 1900 73 160/ 17/ 18 1020.7 $$ >>>>>>>>>>>>>>>>>>>>>>>>>>>> KEY <<<<<<<<<<<<<<<<<<<<<<<<<<< > < > SKY/WX - SKY CONDITION/PRESENT WEATHER < > TMP - TEMPERATURE IN FAHRENHEIT < > DP - DEWPOINT IN FAHRENHEIT < > RH - RELATIVE HUMIDITY IN PERCENT < > WIND - DIRECTION AND SPEED IN MPH < > PRES - MEAN SEA LEVEL PRESSURE IN INCHES OF HG < > WCI - WIND CHILL INDEX < > VSB - VISIBILITY IN MILES < > HX - HEAT INDEX < > TC - TEMPERATURE IN CELSIUS < > VRB - VARIABLE WIND DIRECTION < > < >>>>>>>>>>>>>>>>>>>>>>>>>>>> KEY <<<<<<<<<<<<<<<<<<<<<<<<<<<

USA.gov is the U.S. government's official web portal to all federal, state and local government web resources and services.